C/2007 U1 ( LINEAR )

Japanese version
Home page
Updated on August 11, 2020

---------------------------------------------------------------------

* Profile

Discovery Date October 19, 2007
Magnitude 19.4 mag
Discoverer Lincoln Laboratory Near-Earth Asteroid Research project

* Pictures

* Orbital Elements

Epoch 2008 Aug. 2.0 TT = JDT 2454680.5                                          
T 2008 Aug. 7.05024 TT                                  Rudenko                 
q   3.3292061            (2000.0)            P               Q                  
z  -0.0004453      Peri.    0.92767     +0.65361325     +0.69915082             
 +/-0.0000008      Node    50.04333     +0.69191936     -0.70716122             
e   1.0014826      Incl.  157.78685     +0.30665505     +0.10540934             
From 767 observations 2007 Oct. 19-2009 Nov. 18, mean residual 0".6.            

* Finding Charts

* Magnitudes Graph

        m1 = 3.2 + 5 log d + 17.5 log r(t - 75)

---------------------------------------------------------------------

The orbital elements are published on M.P.E.C. 2020-P19.
The charts are made with StellaNavigator Ver.8 (AstroArts).
The magnitudes graphs are made with Comet for Windows.

---------------------------------------------------------------------

Copyright(C) Seiichi Yoshida (comet@aerith.net). All rights reserved.